sat.trackr.live / text

‹ back to catalog

STARLINK-6193

NORAD 56904 · 2023-083AE

PAYLOAD ACTIVE UNKNOWN

§ Identity

Operator
Country
US
Launch date
2023-06-12
Launch site
AFETR
Launch vehicle
Mass (kg)
RCS (m²)

Purposes: comms

External: N2YO · Heavens-Above · Gunter

§ Orbital elements

Epoch: 2026-09-20T17:09:54.124992Z

Period
94.27 min
Inclination
43.0040°
Eccentricity
0.0001292
Mean motion
15.27576317 rev/d
Perigee alt
482.2 km
Apogee alt
483.9 km
Semi-major
6,861.2 km
B*
6.3143e-6
RAAN
49.3750°
Arg perigee
266.4167°
Mean anomaly
93.6537°
Rev number
18,162

§ Raw data

STARLINK-61931 56904U 23083AE  26263.71520978 -.00000088  00000+0  63143-5 0  99962 56904  43.0040  49.3750 0001292 266.4167  93.6537 15.27576317181626

JSON: /api/v1/satellites/56904 · /tle

For live sub-satellite position, see the globe view (requires WebGL).

§ Visibility from observer

Set your observer location to see the next 7 days of passes ≥ 10°. The values pass through the URL so the page stays shareable.

No JS? Fill the form by hand. The geolocation button needs JavaScript.